Regional Weather Roundup
Issued by NWS

Home | Current Version | Previous Version | Graphics & Text | Print | Product List | Glossary On
Versions: 1 2 3 4 5 6 7 8 9 10 11 12 13 14 15 16 17 18 19 20 21 22 23 24 25 26 27 28 29 30 31 32 33 34 35 36 37 38 39 40 41 42 43 44 45 46 47 48 49 50
000
ASUS43 KLOT 262300
RWRIL

ILLINOIS REGIONAL WEATHER ROUNDUP
NATIONAL WEATHER SERVICE CHICAGO/ROMEOVILLE IL
500 PM CST WED NOV 26 2014

NOTE: "FAIR" INDICATES FEW OR NO CLOUDS BELOW 12,000 FEET WITH NO
SIGNIFICANT WEATHER AND/OR OBSTRUCTIONS TO VISIBILITY.

* THESE STATIONS ARE NOT UNDER NWS QUALITY CONTROL. THEY ALSO MAY NOT
  REPORT WEATHER SUCH AS PRECIPITATION OR FOG.

ILZ001-002-007-009-015-016-024-270000-
NORTHWEST ILLINOIS

CITY           SKY/WX    TMP DP  RH WIND       PRES   REMARKS
MOLINE         CLOUDY    29  23  78 E10       30.11R WCI  20
STERLING*      CLOUDY    27  19  74 NE9       30.13R WCI  17
$$

ILZ003-004-008-010-011-017-018-270000-
NORTH CENTRAL ILLINOIS

CITY           SKY/WX    TMP DP  RH WIND       PRES   REMARKS
ROCKFORD       CLOUDY    27  18  69 NE6       30.15S WCI  20
$$

ILZ005-006-012>014-019>023-270000-
NORTHEAST ILLINOIS

CITY           SKY/WX    TMP DP  RH WIND       PRES   REMARKS
CHICAGO-OHARE  CLOUDY    28  21  75 E5        30.11S WCI  23
CHICAGO-MIDWAY CLOUDY    29  20  69 E6        30.12F WCI  23
AURORA         MOCLDY    24  17  74 NE3       30.12S
WAUKEGAN       CLOUDY    28  23  81 VRB5      30.12S WCI  23
DUPAGE AIRPORT MOCLDY    26  19  74 E3        30.11S
WHEELING       CLOUDY    29  22  75 CALM      30.14S
NORTHERLY ISL    N/A     29  22  75 N6          N/A  WCI  23
$$

LMZ740>746-270000-
SOUTHERN LAKE MICHIGAN

STATION/POSITION SKY/WX   TEMP    WIND        PRES    VSBY  WAVE
                          AIR SEA DIR/SP/G                  HT/PER
                          (F)     (DEG/KT/KT) (MB)    (MI)  (FT/S)
SOUTHERN BUOY              32 42  130/  6/  8 1021.1R         1/ 3
WAUKEGAN HARBOR            29     330/  8/ 10   N/A
HARRISON CRIB              28      90/  5/  8   N/A
BURNHAM HARBOR             28      80/  3/  7   N/A
CALUMET HARBOR             28      70/  3/  5 1018.8F
MICHIGAN CITY              27      50/  5/  7   N/A
$$

ILZ025>027-034>036-040-047-049-050-058-095>099-270000-
WEST-CENTRAL ILLINOIS

CITY           SKY/WX    TMP DP  RH WIND       PRES   REMARKS
QUINCY         CLOUDY    32  30  92 E9        30.02R FOG     WCI  24
$$

ILZ028>032-037-038-041>044-048-051>054-059>061-270000-
CENTRAL ILLINOIS

CITY           SKY/WX    TMP DP  RH WIND       PRES   REMARKS
DECATUR        LGT SNOW  29  26  89 E12       30.06R FOG     WCI  19
PEORIA         CLOUDY    30  24  78 E13       30.07R WCI  20
SPRINGFIELD    LGT SNOW  31  29  92 E9        30.05R VSB 1   WCI  23
TAYLORVILLE    NOT AVBL
$$

ILZ033-039-045-046-055>057-062-063-270000-
EAST-CENTRAL ILLINOIS

CITY           SKY/WX    TMP DP  RH WIND       PRES   REMARKS
CHAMPAIGN      CLOUDY    29  24  82 NE6       30.07S WCI  23
MATTOON        CLOUDY    30  24  78 N5        30.05S WCI  25
$$

ILZ079-100>102-270000-
SOUTHWEST ILLINOIS

CITY           SKY/WX    TMP DP  RH WIND       PRES   REMARKS
ALTON          LGT SNOW  32  32 100 CALM      30.03R
BELLEVILLE     LGT SNOW  33  33 100 E5        30.03R VSB 3/4 WCI  28
CAHOKIA*       CLOUDY    34  33  96 CALM      30.04R FOG
$$

ILZ064>066-069>071-074>076-080>082-084>086-088>090-092>094-270000-
SOUTH-CENTRAL ILLINOIS

CITY           SKY/WX    TMP DP  RH WIND       PRES   REMARKS
CARBONDALE     SNOW      32  31  96 CALM      30.03S VSB 1/2
MARION         LGT SNOW  34  32  93 CALM      30.03S VSB 1
MT. VERNON     CLOUDY    32  28  86 CALM      30.04R VSB 1/2
$$

ILZ067-068-072-073-078-083-087-091-270000-
SOUTHEAST ILLINOIS

CITY           SKY/WX    TMP DP  RH WIND       PRES   REMARKS
LAWRENCEVILLE  CLOUDY    36  29  75 N8        30.05S WCI  30
$$

ABBREVIATIONS USED IN REMARKS
   TC - TEMPERATURE IN CELSIUS
  WCI - WIND CHILL INDEX
   HX - HEAT INDEX
  VSB - VISIBILITY
$$



USA.gov is the U.S. government's official web portal to all federal, state and local government web resources and services.